* Astronomy

Members Login
Post Info TOPIC: Asteroid 2010 LJ109


L

Posts: 131433
Date:
Asteroid 2010 LJ109
Permalink  
 


Orbital elements:
2010 LJ109
Epoch 2010 July 23.0 TT = JDT 2455400.5 MPC
M 355.11846 (2000.0) P Q
n 0.01988028 Peri. 152.91558 -0.93699901 +0.21056785
a 13.4954604 Node 42.40705 -0.34488154 -0.68456195
e 0.3290829 Incl. 24.41322 +0.05558395 -0.69787973
P 49.58 H 10.1 G 0.15 U 7

MPEC 2010 - M35


__________________
Page 1 of 1  sorted by
Quick Reply

Please log in to post quick replies.



Create your own FREE Forum
Report Abuse
Powered by ActiveBoard